Regional Weather Roundup
Issued by NWS

Home | Current Version | Previous Version | Graphics & Text | Print | Product List | Glossary On
Versions: 1 2 3 4 5 6 7 8 9 10 11 12 13 14 15 16 17 18 19 20 21 22 23 24 25 26 27 28 29 30 31 32 33 34 35 36 37 38 39 40 41 42 43 44 45 46 47 48 49 50
000
ASUS43 KDMX 180006
RWRIA

WEATHER ROUNDUP FOR IOWA
NATIONAL WEATHER SERVICE DES MOINES IA
600 PM CST TUE JAN 17 2017

NOTE: "FAIR" INDICATES FEW OR NO CLOUDS BELOW 12,000 FEET WITH NO
SIGNIFICANT WEATHER AND/OR OBSTRUCTIONS TO VISIBILITY.

* - THESE STATIONS ARE NOT NWS STATIONS...THUS NOT UNDER NWS
QUALITY CONTROL.  THEY ALSO DO NOT REPORT WEATHER SUCH
AS PRECIPITATION OR FOG.

IAZ001>003-012>014-020>022-031>034-043>046-180100-
   NORTHWEST IOWA

CITY           SKY/WX    TMP DP  RH WIND       PRES   REMARKS
CARROLL *      CLOUDY    32  32 100 SW12      30.07S WCI  23
CHEROKEE *     CLEAR     28  28 100 S3        30.05S FOG
DENISON *      CLOUDY    28  28 100 SW9       30.06R WCI  20
LE MARS *      CLEAR     30  28  93 S5        30.05F WCI  25
ORANGE CITY *  CLEAR     28  28 100 SW5       30.04R WCI  23
SHELDON *      CLEAR     28  28 100 SW5       30.01S WCI  23
SIOUX CITY     CLEAR     32  28  85 S5        30.06S WCI  27
6HR MIN TEMP:  28; 6HR MAX TEMP:  36;

SPENCER        CLEAR     28  26  92 SW6       30.03S WCI  22
6HR MIN TEMP:  28; 6HR MAX TEMP:  32;

STORM LAKE *   CLOUDY    28  28 100 SW9       30.04S FOG     WCI  20
$$

IAZ055>058-069>071-079>083-090>094-180100-
   SOUTHWEST IOWA

CITY           SKY/WX    TMP DP  RH WIND       PRES   REMARKS
ATLANTIC *     CLOUDY    30  30 100 SW9       30.10R FOG     WCI  22
AUDUBON *      CLOUDY    30  28  93 CALM      30.09R FOG
CLARINDA *     CLOUDY    34  32  93 W7        30.14R WCI  28
COUNCIL BLFS * CLEAR     28  28 100 S6        30.09R WCI  22
CRESTON *      CLOUDY    32  32 100 W8        30.11R FOG     WCI  25
HARLAN  *      CLOUDY    28  28 100 SW6       30.13R WCI  22
LAMONI         CLOUDY    34  33  96 W7        30.10R WCI  28
6HR MIN TEMP:  34; 6HR MAX TEMP:  36;

RED OAK *      CLOUDY    32  30  93 SW10      30.12R WCI  24
SHENANDOAH *   MOCLDY    32  30  93 SW6       30.13S WCI  26
$$

IAZ047>049-059>061-072>074-084-180100-
   CENTRAL IOWA

CITY           SKY/WX    TMP DP  RH WIND       PRES   REMARKS
AMES           CLOUDY    33  33 100 W9        30.07R WCI  25
6HR MIN TEMP:  33; 6HR MAX TEMP:  35;

ANKENY *       CLOUDY    34  32  93 W7        30.10R WCI  28
BOONE *        FOG       32  32 100 W12       30.07R VSB 3/4 WCI  23
CHARITON *     CLOUDY    36  34  93 W8        30.09R WCI  29
DES MOINES     CLOUDY    36  33  89 W6        30.09R WCI  31
6HR MIN TEMP:  35; 6HR MAX TEMP:  37;

GRINNELL*      CLOUDY    33  33  99 W9        30.06R FOG     WCI  26
KNOXVILLE *    CLOUDY    34  32  93 W8        30.07R FOG     WCI  27
MARSHALLTOWN   CLOUDY    33  33 100 NW5       30.05R WCI  29
6HR MIN TEMP:  33; 6HR MAX TEMP:  33;

NEWTON *       CLOUDY    34  32  93 W10       30.06S FOG     WCI  26
PELLA *        MOCLDY    34  33  94 W7        30.10R WCI  28
PERRY *        CLOUDY    32  32 100 W6        30.09R FOG     WCI  27
$$

IAZ004>006-015-016-023>025-035-036-180100-
   NORTH CENTRAL IOWA

CITY           SKY/WX    TMP DP  RH WIND       PRES   REMARKS
ALGONA *       MOCLDY    30  30 100 SW5       30.03S FOG     WCI  25
CLARION *      FOG       32  32 100 W12       30.05R VSB 1/2 WCI  23
ESTHERVILLE    CLEAR     29  27  92 SW8       30.02R WCI  21
6HR MIN TEMP:  29; 6HR MAX TEMP:  31;

FORT DODGE *   CLOUDY    30  28  93 MISG      30.07R
MASON CITY     CLOUDY    32  31  96 W9        30.04R FOG     WCI  24
6HR MIN TEMP:  31; 6HR MAX TEMP:  32;

FOREST CITY *  FOG       32  32 100 W7        30.03R VSB 3/4 WCI  26
WEBSTER CITY * FOG       32  32 100 W9        30.04R VSB 1/4 WCI  24
IOWA FALLS *   CLOUDY    34  32  94 W8        30.05R FOG     WCI  27
$$

IAZ007>011-017>019-026>030-037>042-050>054-066-180100-
   NORTHEAST IOWA

CITY           SKY/WX    TMP DP  RH WIND       PRES   REMARKS
CEDAR RAPIDS   CLOUDY    32  31  96 W12       30.03R FOG     WCI  23
6HR MIN TEMP:  32; 6HR MAX TEMP:  34;

CHARLES CITY * CLOUDY    34  34 100 NW13      30.02R FOG     WCI  25
CLINTON *      CLOUDY    34  33  96 W15       30.02R FOG     WCI  24
DECORAH *      CLOUDY    34  34 100 NW9       29.98R FOG     WCI  26
DUBUQUE        CLOUDY    33  32  96 W9        29.98R FOG     WCI  25
6HR MIN TEMP:  33; 6HR MAX TEMP:  33;

MONTICELLO *   CLOUDY    34  32  93 W10       30.01R FOG     WCI  26
OELWEIN *      FOG       32  32 100 NW13      30.02R VSB 1/2 WCI  22
WATERLOO       CLOUDY    33  31  92 NW9       30.04R FOG     WCI  25
6HR MIN TEMP:  32; 6HR MAX TEMP:  34;

$$

IAZ064-065-067-068-078-180100-
   EAST CENTRAL IOWA

CITY           SKY/WX    TMP DP  RH WIND       PRES   REMARKS
DAVENPORT      CLOUDY    34  33  96 W13       30.03R FOG     WCI  25
6HR MIN TEMP:  34; 6HR MAX TEMP:  36;

IOWA CITY      CLOUDY    35  32  88 W10       30.07R WCI  27
6HR MIN TEMP:  35; 6HR MAX TEMP:  37;

MUSCATINE *    CLOUDY    36  34  93 W16       30.07R FOG     WCI  26
QUAD CITIES    CLOUDY    36  33  89 W12       30.03R FOG     WCI  28
6HR MIN TEMP:  36; 6HR MAX TEMP:  37;

$$

IAZ062-063-075>077-085>089-095>099-180100-
   SOUTHEAST IOWA

CITY           SKY/WX    TMP DP  RH WIND       PRES   REMARKS
BURLINGTON     CLOUDY    36  35  96 W10       30.07R WCI  28
6HR MIN TEMP:  36; 6HR MAX TEMP:  37;

FAIRFIELD *    CLOUDY    36  34  93 W10       30.07R FOG     WCI  28
FORT MADISON * CLOUDY    37  36  93 W9        30.09R WCI  31
KEOKUK *       CLOUDY    37  36  93 W10       30.09R WCI  30
OSKALOOSA *    CLOUDY    34  33  97 W9        30.08R FOG     WCI  26
OTTUMWA        CLOUDY    35  34  96 W7        30.07R FOG     WCI  29
6HR MIN TEMP:  35; 6HR MAX TEMP:  37;

WASHINGTON *   CLOUDY    36  34  93 W13       30.08R FOG     WCI  27
$$

ABBREVIATIONS USED IN REMARKS
   TC - TEMPERATURES IN CELSIUS
  WCI - WIND CHILL INDEX
   HX - HEAT INDEX
  VSB - VISIBILITY
$$




USA.gov is the U.S. government's official web portal to all federal, state and local government web resources and services.